SL-8 R/B, 7009

Orbit data source: Space-Track

SL-8 R/B, 7009 is space debris in LEO originally from a launch on Sat, 29 Dec 1973 UTC launched from the Plesetsk Missile And Space Complex (PKMTR). Debris objects in space refer to the collection of defunct objects orbiting the Earth. Examples of debris include non-operational satellites, rocket bodies, and fragments generated from explosions, collisions, or faulty payload assembly.

Loading next visibility...
SL-8 R/B details
Identifier
7009, 1973-109B
Orbit
LEO
Last TLE update6 hours ago
Origin
Flag of CISRVSN (CIS)
ManufacturerOmsk Av. Zav.
MissionSpacecraft
Bus & MotorS3, Unknown motor
Mass1,434 kg wet, 1,434 kg dry
Launch date (UTC)
1973-12-29 (51 years ago)
Launch vehicleUnknown
Launch site
Plesetsk Missile And Space Complex (PKMTR)
Object type
Payload
Rocket body
Debris
Shape & HBRCyl, 4.2 m
Radar Cross Section10.179 m², Large (>1 m²)

Expand to show TLE details & history

TLE from 6 hours ago
0 SL-8 R/B
1 07009U 73109B   24361.25416687  .00000110  00000-0  96050-4 0  9997
2 07009  82.9493  61.9707 0020947 104.9529 316.3246 13.76985964561369
Epoch: 2024-12-26T06:06Z
Definitive object data (Epoch: 2024-12-26T06:06:00.017Z)
Latitude60.42868°
Longitude-112.242°
Altitude973.767 km
Speed7.376 km/s
True Right ascension04h 57m 58s
True Declination60° 17' 07"
Sunlit
Object was in full shadow at TLE epoch
Visualization TLE readout
Latitude-58.77788°
Longitude66.75785°
Altitude1,008.202 km
Speed7.341 km/s
Apparent Right ascension20h 46m 21s
Apparent Declination-61° 14' 50"
Sunlit
Object is in daylight
Visualization observer readout
Local Sidereal Time11:33:04
Azimuth144.101° SSE
Elevation-56.942°
Doppler factor1
Orbital elements
Apogee altitude987.138 km
Perigee altitude956.347 km
Semi-major axis7,349.879 km
Eccentricity0.0020947
Inclination82.9493°
RAAN61.9707°
Arg. of periapsis104.9529°
True anomaly316.15852°
Mean anomaly316.3246°
Eccentric anomaly316.24159°
Mean motion3.44447 °/min
BSTAR0.00009605
Orbital period104.52 mins
Loading maneuver chart data...
Loading historical data...
Loading historical data...
Loading historical data...
Loading historical data...
Loading historical data...
Loading historical data...
Loading historical data...
Other satellites on launch #109 in the year 1973 (1973-12-29 UTC)

SL-8 R/B Visibility forecast

Observer location: undefined°, undefined

Span
Click to sort rows by Start time (UTC) header in descending order
Start Az.
Max El. time (UTC)
Max El. Az.
Max El.
End time (UTC)
End Az.
9 mins2024-12-26 15:06:35.829Z20.666° NNE2024-12-26 15:11:35.829Z79.4° E22.904°2024-12-26 15:15:35.829Z123.351° SE
9 mins2024-12-26 16:52:35.829Z333.49° NNW2024-12-26 16:56:35.829Z272.121° WNW35.692°2024-12-26 17:01:35.829Z201.96° SSW
10 mins2024-12-27 04:35:35.829Z165.131° S2024-12-27 04:40:35.829Z72.867° E39.682°2024-12-27 04:45:35.829Z16.503° NNE
7 mins2024-12-27 06:22:35.829Z252.246° W2024-12-27 06:25:35.829Z286.09° WNW19.277°2024-12-27 06:29:35.829Z331.101° NNW
|